Location: Gourdan-Polignan
(43.0709°N, 0.5748°E)
Time: 04:08:51
(UTC+00:00)

PSLV R/B - Pass Details

Date: 15 May 2026
Orbit: 585 x 678 km, 97.9° (Epoch: 6 June)

Event Time Altitude Azimuth Distance (km) Brightness Sun altitude
Rises 23:11:59 0° 16° (NNE) 2,882 8.0 -27.1°
Reaches altitude 10° 23:14:10 10° 19° (NNE) 1,987 6.9 -27.2°
Enters shadow 23:17:19 45° 42° (NE) 862 4.4 -27.3°
